{"data":{"norad_id":28058,"epoch":"2026-09-19T22:36:17.699328Z","epoch_age_seconds":62703,"freshness":"FRESH","line1":"1 28058U 03049B   26262.94187152  .00000115  00000+0  42720-4 0  9999","line2":"2 28058  98.4948 162.6425 0011280 254.2889 105.7060 14.48621931209990","mean_motion":14.48621931,"eccentricity":0.001128,"inclination_deg":98.4948,"raan_deg":162.6425,"arg_perigee_deg":254.2889,"mean_anomaly_deg":105.706,"bstar":4.272e-5,"rev_number":20999,"period_min":99.4048184129,"perigee_km":722.13484668472,"apogee_km":738.17114891977,"semimajor_km":7108.2899978022,"source":"CELESTRAK","updated_at":"2026-09-20T09:00:13.593254Z"}}